This demonstration page uses our WeatherBlox Daily Observations layout. Learn more.

Left ArrowRight Arrow

39.08367, -84.50855

Hourly Observations for March 20, 2018

Temp ( °F °C ) Dew Point ( °F °C ) Humidity (%) Winds ( mph kmh ) Pressure ( in mb ) Visibility ( mi km ) Precip ( " mm )
12:53 am 00:53 Cloudy 41 5 32 undefined 70 70 NNE 17 28 29.64 1004 10 16 N/A
1:53 am 01:53 Cloudy 39 3.9 30 -1.1 70 70 NNE 12 19 29.63 1003 10 16 N/A
2:53 am 02:53 Cloudy 38 3.3 28 -2.2 68 68 NNE 14 22 29.62 1003 10 16 N/A
3:53 am 03:53 Cloudy with Rain 36 2.2 26 -3.3 67 67 NNE 12 19 29.62 1003 7 11 0.01 0.25
4:53 am 04:53 Cloudy 36 2.2 27 -2.8 70 70 N 7 11 29.64 1004 10 16 0.02 0.51
5:53 am 05:53 Cloudy with Light Rain 35 1.7 29 -1.7 78 78 NE 12 19 29.64 1004 10 16 N/A
6:53 am 06:53 Cloudy with Light Rain 35 1.7 29 -1.7 78 78 NE 12 19 29.64 1004 10 16 0.01 0.25
7:40 am 07:40 Cloudy with Light Rain 34 1.1 29 -1.7 82 82 NE 13 20 29.68 1005 9 14 0.01 0.25
7:53 am 07:53 Cloudy with Light Rain 34 1.1 30 -1.1 85 85 NNE 12 19 29.65 1004 6 10 0.01 0.25
8:53 am 08:53 Cloudy 34 1.1 29 -1.7 82 82 NNE 10 17 29.66 1005 7 11 0.01 0.25
9:53 am 09:53 Cloudy 35 1.7 28 -2.2 76 76 NNE 13 20 29.67 1005 10 16 N/A
10:53 am 10:53 Cloudy 36 2.2 30 -1.1 79 79 NNE 13 20 29.67 1005 10 16 0.01 0.25
11:53 am 11:53 Cloudy 37 2.8 29 -1.7 73 73 NE 13 20 29.67 1005 10 16 N/A
12:53 pm 12:53 Cloudy 37 2.8 31 -0.6 79 79 NNE 10 17 29.68 1005 10 16 N/A
1:53 pm 13:53 Cloudy 37 2.8 31 -0.6 79 79 NNE 12 19 29.67 1005 10 16 N/A
2:53 pm 14:53 Cloudy with Mist and Fog 37 2.8 33 0.6 86 86 NNE 12 19 29.65 1004 6 10 N/A
3:53 pm 15:53 Cloudy 39 3.9 33 0.6 79 79 NE 5 7 29.64 1004 10 16 N/A
4:53 pm 16:53 Cloudy 40 4.4 33 0.6 77 77 NE 8 13 29.63 1003 10 16 N/A
5:53 pm 17:53 Cloudy 41 5 34 1.1 76 76 N 7 11 29.62 1003 10 16 N/A
6:53 pm 18:53 Cloudy 39 3.9 33 0.6 79 79 NNE 12 19 29.64 1004 10 16 N/A
7:14 pm 19:14 Cloudy with Light Rain 39 3.9 34 1.1 82 82 NNE 15 24 29.68 1005 10 16 N/A
7:39 pm 19:39 Cloudy with Light Rain 37 2.8 33 0.6 86 86 NNE 10 17 29.68 1005 9 14 N/A
7:53 pm 19:53 Cloudy with Light Rain 37 2.8 34 1.1 89 89 NNE 7 11 29.65 1004 10 16 N/A
8:23 pm 20:23 Cloudy with Light Rain 37 2.8 33 0.6 86 86 N 5 7 29.68 1005 9 14 N/A
8:53 pm 20:53 Cloudy with Light Rain 37 2.8 34 1.1 89 89 N 10 17 29.66 1004 8 13 0.02 0.51
9:53 pm 21:53 Cloudy with Light Rain 36 2.2 35 1.7 97 97 N 7 11 29.68 1005 6 10 0.02 0.51
10:53 pm 22:53 Cloudy with Light Snow 34 1.1 33 0.6 97 97 N 13 20 29.69 1005 4 6 0.02 0.51
11:00 pm 23:00 Cloudy with Light Snow 34 1.1 33 0.6 97 97 N 10 17 29.71 1006 3 5 N/A
11:51 pm 23:51 Cloudy with Light Snow 34 1 32 undefined 93 93 N 10 17 29.71 1006 2 3 0.01 0.25
11:53 pm 23:53 Cloudy with Light Snow 33 0.6 32 undefined 96 96 N 10 17 29.70 1006 2 3 0.01 0.25

Powered by AerisWeather